{"data":{"norad_id":63346,"epoch":"2026-05-25T05:12:16.158816Z","epoch_age_seconds":59883,"freshness":"FRESH","line1":"1 63346U 25059C   26145.21685369  .00002461  00000+0  15154-3 0  9992","line2":"2 63346  97.6123 326.8429 0014721 232.4336 127.5557 15.10859057 64838","mean_motion":15.10859057,"eccentricity":0.0014721,"inclination_deg":97.6123,"raan_deg":326.8429,"arg_perigee_deg":232.4336,"mean_anomaly_deg":127.5557,"bstar":0.00015154,"rev_number":6483,"period_min":95.310015406685,"perigee_km":523.40407637378,"apogee_km":543.75355007107,"semimajor_km":6911.7158132224,"source":"CELESTRAK","updated_at":"2026-05-25T13:38:03.657213Z"}}